GSAT-15

Last updated on Fri Jul 10 2026 00:03:04 GMT+0000 (Coordinated Universal Time)

1 41028U 15065A 26190.30223964 -.00000244 00000+0 00000+0 0 9998 2 41028 0.0130 305.9394 0003750 142.9706 40.6451 1.00271817 39029
UTC large
Height (km)
Speed (km/s)
/
Latitude / Longitude
Inclination (degrees)
Orbital Period (minutes)
Azimuth
Elevation
Range (km)
Doppler Factor

Next 0 passes for location: London (51.5072 / 0.1276)

No passes found over London.
GSAT-15